Location: Unspecified
(35.7250°N, 0.0000°E)
Time: 06:27:56
(UTC+00:00)

SR - Pass Details

Date: 29 June 2019
Orbit: 581 x 875 km, 66.7° (Epoch: 15 July)

Event Time Altitude Azimuth Distance (km) Brightness Sun altitude
Exits shadow 02:29:31 26° 293° (WNW) 1,169 ? -21.6°
Maximum altitude 02:30:01 26° 305° (NW) 1,153 ? -21.6°
Drops below altitude 10° 02:33:39 10° 3° (N) 1,931 ? -21.1°
Sets 02:36:14 0° 16° (NNE) 2,866 ? -20.8°
